date,time,SUV Intensity [MED/Hr],UV Index,Daily total [MED],Since Last [MED]
04/08/2023,23:59:45,0.000,0.0,5.47,5.47
05/08/2023,00:00:45,0.000,0.0,0.0,-5.47
05/08/2023,00:01:44,0.000,0.0,0.0,0.0
05/08/2023,00:02:45,0.000,0.0,0.0,0.0
05/08/2023,00:03:44,0.001,0.0,0.0,0.0
05/08/2023,00:05:08,0.000,0.0,0.0,0.0
05/08/2023,00:05:45,0.000,0.0,0.0,0.0
05/08/2023,00:06:44,0.001,0.0,0.0,0.0
05/08/2023,00:07:45,0.000,0.0,0.0,0.0
05/08/2023,00:08:43,0.000,0.0,0.0,0.0
05/08/2023,00:09:44,0.000,0.0,0.0,0.0
05/08/2023,00:10:46,0.000,0.0,0.0,0.0
05/08/2023,00:11:45,0.000,0.0,0.0,0.0
05/08/2023,00:12:47,0.000,0.0,0.0,0.0
05/08/2023,00:13:45,0.000,0.0,0.0,0.0
05/08/2023,00:14:45,0.000,0.0,0.0,0.0
05/08/2023,00:15:44,0.000,0.0,0.0,0.0
05/08/2023,00:16:45,-0.000,0.0,0.0,0.0
05/08/2023,00:17:44,0.000,0.0,0.0,0.0
05/08/2023,00:18:44,0.001,0.0,0.0,0.0
05/08/2023,00:19:45,0.000,0.0,0.0,0.0
05/08/2023,00:20:45,0.000,0.0,0.0,0.0
05/08/2023,00:21:45,0.000,0.0,0.0,0.0
05/08/2023,00:22:45,0.000,0.0,0.0,0.0
05/08/2023,00:23:45,0.000,0.0,0.0,0.0
05/08/2023,00:24:47,-0.001,0.0,0.0,0.0
05/08/2023,00:25:44,0.000,0.0,0.0,0.0
05/08/2023,00:26:45,0.001,0.0,0.0,0.0
05/08/2023,00:27:45,0.000,0.0,0.0,0.0
05/08/2023,00:28:45,0.000,0.0,0.0,0.0
05/08/2023,00:29:45,0.001,0.0,0.0,0.0
05/08/2023,00:30:45,0.000,0.0,0.0,0.0
05/08/2023,00:31:45,0.000,0.0,0.0,0.0
05/08/2023,00:32:45,-0.001,0.0,0.0,0.0
05/08/2023,00:33:45,-0.000,0.0,0.0,0.0
05/08/2023,00:34:45,0.000,0.0,0.0,0.0
05/08/2023,00:35:45,-0.000,0.0,0.0,0.0
05/08/2023,00:36:45,0.000,0.0,0.0,0.0
05/08/2023,00:37:45,0.000,0.0,0.0,0.0
05/08/2023,00:38:44,0.000,0.0,0.0,0.0
05/08/2023,00:39:45,0.000,0.0,0.0,0.0
05/08/2023,00:40:45,0.000,0.0,0.0,0.0
05/08/2023,00:41:45,0.000,0.0,0.0,0.0
05/08/2023,00:42:45,-0.000,0.0,0.0,0.0
05/08/2023,00:43:45,0.000,0.0,0.0,0.0
05/08/2023,00:44:45,0.000,0.0,0.0,0.0
05/08/2023,00:45:45,0.000,0.0,0.0,0.0
05/08/2023,00:46:45,0.000,0.0,0.0,0.0
05/08/2023,00:47:43,0.000,0.0,0.0,0.0
05/08/2023,00:48:43,0.000,0.0,0.0,0.0
05/08/2023,00:49:44,0.000,0.0,0.0,0.0
05/08/2023,00:50:45,0.000,0.0,0.0,0.0
05/08/2023,00:51:45,0.000,0.0,0.0,0.0
05/08/2023,00:52:45,0.000,0.0,0.0,0.0
05/08/2023,00:53:45,0.000,0.0,0.0,0.0
05/08/2023,00:54:45,0.000,0.0,0.0,0.0
05/08/2023,00:55:45,0.000,0.0,0.0,0.0
05/08/2023,00:56:44,0.000,0.0,0.0,0.0
05/08/2023,00:57:45,0.000,0.0,0.0,0.0
05/08/2023,00:58:44,-0.001,0.0,0.0,0.0
05/08/2023,00:59:45,0.000,0.0,0.0,0.0
05/08/2023,01:00:45,0.001,0.0,0.0,0.0
05/08/2023,01:01:45,0.000,0.0,0.0,0.0
05/08/2023,01:02:45,0.000,0.0,0.0,0.0
05/08/2023,01:03:45,0.000,0.0,0.0,0.0
05/08/2023,01:04:45,0.000,0.0,0.0,0.0
05/08/2023,01:05:45,0.001,0.0,0.0,0.0
05/08/2023,01:06:43,-0.000,0.0,0.0,0.0
05/08/2023,01:07:43,0.000,0.0,0.0,0.0
05/08/2023,01:08:44,0.000,0.0,0.0,0.0
05/08/2023,01:09:45,0.000,0.0,0.0,0.0
05/08/2023,01:10:46,0.000,0.0,0.0,0.0
05/08/2023,01:11:45,0.000,0.0,0.0,0.0
05/08/2023,01:12:45,0.001,0.0,0.0,0.0
05/08/2023,01:13:45,0.000,0.0,0.0,0.0
05/08/2023,01:14:45,0.000,0.0,0.0,0.0
05/08/2023,01:15:46,0.001,0.0,0.0,0.0
05/08/2023,01:16:45,0.000,0.0,0.0,0.0
05/08/2023,01:17:45,-0.000,0.0,0.0,0.0
05/08/2023,01:18:45,0.000,0.0,0.0,0.0
05/08/2023,01:19:45,0.000,0.0,0.0,0.0
05/08/2023,01:20:44,0.001,0.0,0.0,0.0
05/08/2023,01:21:45,0.001,0.0,0.0,0.0
05/08/2023,01:22:45,0.001,0.0,0.0,0.0
05/08/2023,01:23:45,0.001,0.0,0.0,0.0
05/08/2023,01:24:45,0.001,0.0,0.0,0.0
05/08/2023,01:25:45,0.001,0.0,0.0,0.0
05/08/2023,01:26:45,0.000,0.0,0.0,0.0
05/08/2023,01:27:45,0.000,0.0,0.0,0.0
05/08/2023,01:28:45,0.000,0.0,0.0,0.0
05/08/2023,01:29:44,0.000,0.0,0.0,0.0
05/08/2023,01:30:45,0.000,0.0,0.0,0.0
05/08/2023,01:31:43,0.000,0.0,0.0,0.0
05/08/2023,01:32:43,0.000,0.0,0.0,0.0
05/08/2023,01:33:45,0.001,0.0,0.0,0.0
05/08/2023,01:34:45,0.000,0.0,0.0,0.0
05/08/2023,01:35:45,0.000,0.0,0.0,0.0
05/08/2023,01:36:43,0.001,0.0,0.0,0.0
05/08/2023,01:37:42,0.000,0.0,0.0,0.0
05/08/2023,01:38:45,0.001,0.0,0.0,0.0
05/08/2023,01:39:45,0.001,0.0,0.0,0.0
05/08/2023,01:40:45,0.000,0.0,0.0,0.0
05/08/2023,01:41:45,0.000,0.0,0.0,0.0
05/08/2023,01:42:45,0.001,0.0,0.0,0.0
05/08/2023,01:43:45,0.000,0.0,0.0,0.0
05/08/2023,01:44:45,0.000,0.0,0.0,0.0
05/08/2023,01:45:45,0.000,0.0,0.0,0.0
05/08/2023,01:46:44,0.000,0.0,0.0,0.0
05/08/2023,01:47:45,0.000,0.0,0.0,0.0
05/08/2023,01:48:45,-0.000,0.0,0.0,0.0
05/08/2023,01:49:44,0.000,0.0,0.0,0.0
05/08/2023,01:50:45,0.001,0.0,0.0,0.0
05/08/2023,01:51:45,0.001,0.0,0.0,0.0
05/08/2023,01:52:45,-0.001,0.0,0.0,0.0
05/08/2023,01:53:45,0.000,0.0,0.0,0.0
05/08/2023,01:54:45,0.001,0.0,0.0,0.0
05/08/2023,01:55:45,0.001,0.0,0.0,0.0
05/08/2023,01:56:45,0.001,0.0,0.0,0.0
05/08/2023,01:57:45,0.001,0.0,0.0,0.0
05/08/2023,01:58:45,0.001,0.0,0.0,0.0
05/08/2023,01:59:45,0.001,0.0,0.0,0.0
05/08/2023,02:00:45,0.002,0.0,0.0,0.0
05/08/2023,02:01:45,0.001,0.0,0.0,0.0
05/08/2023,02:02:45,0.001,0.0,0.0,0.0
05/08/2023,02:03:45,0.001,0.0,0.0,0.0
05/08/2023,02:04:45,0.000,0.0,0.0,0.0
05/08/2023,02:05:45,0.002,0.0,0.0,0.0
05/08/2023,02:06:45,0.001,0.0,0.0,0.0
05/08/2023,02:07:43,0.001,0.0,0.0,0.0
05/08/2023,02:08:43,0.000,0.0,0.0,0.0
05/08/2023,02:09:46,0.001,0.0,0.0,0.0
05/08/2023,02:10:46,0.001,0.0,0.0,0.0
05/08/2023,02:11:45,0.001,0.0,0.0,0.0
05/08/2023,02:12:45,0.001,0.0,0.0,0.0
05/08/2023,02:13:45,0.001,0.0,0.0,0.0
05/08/2023,02:14:45,0.002,0.0,0.0,0.0
05/08/2023,02:15:45,0.001,0.0,0.0,0.0
05/08/2023,02:16:45,0.000,0.0,0.0,0.0
05/08/2023,02:17:45,0.001,0.0,0.0,0.0
05/08/2023,02:18:45,0.001,0.0,0.0,0.0
05/08/2023,02:19:43,0.002,0.0,0.0,0.0
05/08/2023,02:20:43,0.000,0.0,0.0,0.0
05/08/2023,02:21:45,0.002,0.0,0.0,0.0
05/08/2023,02:22:45,0.001,0.0,0.0,0.0
05/08/2023,02:23:45,0.001,0.0,0.0,0.0
05/08/2023,02:24:45,0.001,0.0,0.0,0.0
05/08/2023,02:25:45,0.000,0.0,0.0,0.0
05/08/2023,02:26:46,0.001,0.0,0.0,0.0
05/08/2023,02:27:45,0.001,0.0,0.0,0.0
05/08/2023,02:28:46,0.001,0.0,0.0,0.0
05/08/2023,02:29:45,0.000,0.0,0.0,0.0
05/08/2023,02:30:45,0.001,0.0,0.0,0.0
05/08/2023,02:31:45,0.001,0.0,0.0,0.0
05/08/2023,02:32:45,0.001,0.0,0.0,0.0
05/08/2023,02:33:45,0.001,0.0,0.0,0.0
05/08/2023,02:34:45,0.001,0.0,0.0,0.0
05/08/2023,02:35:45,0.000,0.0,0.0,0.0
05/08/2023,02:36:45,0.001,0.0,0.0,0.0
05/08/2023,02:37:46,0.001,0.0,0.0,0.0
05/08/2023,02:38:45,0.000,0.0,0.0,0.0
05/08/2023,02:39:45,0.000,0.0,0.0,0.0
05/08/2023,02:40:45,0.000,0.0,0.0,0.0
05/08/2023,02:41:46,0.001,0.0,0.0,0.0
05/08/2023,02:42:45,0.001,0.0,0.0,0.0
05/08/2023,02:43:45,0.001,0.0,0.0,0.0
05/08/2023,02:44:45,0.000,0.0,0.0,0.0
05/08/2023,02:45:45,0.001,0.0,0.0,0.0
05/08/2023,02:46:45,0.001,0.0,0.0,0.0
05/08/2023,02:47:45,0.002,0.0,0.0,0.0
05/08/2023,02:48:45,0.001,0.0,0.0,0.0
05/08/2023,02:49:45,0.001,0.0,0.0,0.0
05/08/2023,02:50:45,0.001,0.0,0.0,0.0
05/08/2023,02:51:45,-0.000,0.0,0.0,0.0
05/08/2023,02:52:45,0.001,0.0,0.0,0.0
05/08/2023,02:53:43,0.001,0.0,0.0,0.0
05/08/2023,02:54:44,0.001,0.0,0.0,0.0
05/08/2023,02:55:45,-0.000,0.0,0.0,0.0
05/08/2023,02:56:45,0.001,0.0,0.0,0.0
05/08/2023,02:57:45,0.001,0.0,0.0,0.0
05/08/2023,02:58:45,0.001,0.0,0.0,0.0
05/08/2023,02:59:45,0.001,0.0,0.0,0.0
05/08/2023,03:00:45,0.001,0.0,0.0,0.0
05/08/2023,03:01:45,0.001,0.0,0.0,0.0
05/08/2023,03:02:45,0.001,0.0,0.0,0.0
05/08/2023,03:03:45,0.002,0.0,0.0,0.0
05/08/2023,03:04:45,0.001,0.0,0.0,0.0
05/08/2023,03:05:45,0.001,0.0,0.0,0.0
05/08/2023,03:06:45,0.000,0.0,0.0,0.0
05/08/2023,03:07:45,0.000,0.0,0.0,0.0
05/08/2023,03:08:45,0.001,0.0,0.0,0.0
05/08/2023,03:09:45,0.001,0.0,0.0,0.0
05/08/2023,03:10:45,0.001,0.0,0.0,0.0
05/08/2023,03:11:45,0.001,0.0,0.0,0.0
05/08/2023,03:12:46,0.000,0.0,0.0,0.0
05/08/2023,03:13:45,0.001,0.0,0.0,0.0
05/08/2023,03:14:45,0.001,0.0,0.0,0.0
05/08/2023,03:15:45,0.000,0.0,0.0,0.0
05/08/2023,03:16:45,0.001,0.0,0.0,0.0
05/08/2023,03:17:45,0.001,0.0,0.0,0.0
05/08/2023,03:18:46,0.001,0.0,0.0,0.0
05/08/2023,03:19:45,0.001,0.0,0.0,0.0
05/08/2023,03:20:45,0.001,0.0,0.0,0.0
05/08/2023,03:21:45,0.001,0.0,0.0,0.0
05/08/2023,03:22:46,0.001,0.0,0.0,0.0
05/08/2023,03:23:45,0.002,0.0,0.0,0.0
05/08/2023,03:24:45,0.001,0.0,0.0,0.0
05/08/2023,03:25:45,0.001,0.0,0.0,0.0
05/08/2023,03:26:45,0.001,0.0,0.0,0.0
05/08/2023,03:27:45,0.001,0.0,0.0,0.0
05/08/2023,03:28:43,0.001,0.0,0.0,0.0
05/08/2023,03:29:43,0.001,0.0,0.0,0.0
05/08/2023,03:30:45,0.001,0.0,0.0,0.0
05/08/2023,03:31:45,0.001,0.0,0.0,0.0
05/08/2023,03:32:45,0.001,0.0,0.0,0.0
05/08/2023,03:33:46,0.001,0.0,0.0,0.0
05/08/2023,03:34:45,0.001,0.0,0.0,0.0
05/08/2023,03:35:45,0.001,0.0,0.0,0.0
05/08/2023,03:36:45,0.001,0.0,0.0,0.0
05/08/2023,03:37:46,0.002,0.0,0.0,0.0
05/08/2023,03:38:45,0.001,0.0,0.0,0.0
05/08/2023,03:39:45,0.001,0.0,0.0,0.0
05/08/2023,03:40:46,0.001,0.0,0.0,0.0
05/08/2023,03:41:45,0.002,0.0,0.0,0.0
05/08/2023,03:42:45,0.000,0.0,0.0,0.0
05/08/2023,03:43:45,0.001,0.0,0.0,0.0
05/08/2023,03:44:45,0.001,0.0,0.0,0.0
05/08/2023,03:45:46,0.001,0.0,0.0,0.0
05/08/2023,03:46:46,0.001,0.0,0.0,0.0
05/08/2023,03:47:46,0.001,0.0,0.0,0.0
05/08/2023,03:48:45,0.001,0.0,0.0,0.0
05/08/2023,03:49:45,0.000,0.0,0.0,0.0
05/08/2023,03:50:46,0.001,0.0,0.0,0.0
05/08/2023,03:51:46,0.002,0.0,0.0,0.0
05/08/2023,03:52:45,0.001,0.0,0.0,0.0
05/08/2023,03:53:45,0.001,0.0,0.0,0.0
05/08/2023,03:54:45,0.001,0.0,0.0,0.0
05/08/2023,03:55:45,0.001,0.0,0.0,0.0
05/08/2023,03:56:46,0.001,0.0,0.0,0.0
05/08/2023,03:57:45,0.002,0.0,0.0,0.0
05/08/2023,03:58:45,-0.000,0.0,0.0,0.0
05/08/2023,03:59:45,0.001,0.0,0.0,0.0
05/08/2023,04:00:45,0.000,0.0,0.0,0.0
05/08/2023,04:01:45,0.001,0.0,0.0,0.0
05/08/2023,04:02:45,0.001,0.0,0.0,0.0
05/08/2023,04:03:45,0.001,0.0,0.0,0.0
05/08/2023,04:04:45,0.002,0.0,0.0,0.0
05/08/2023,04:05:46,0.002,0.0,0.0,0.0
05/08/2023,04:06:45,0.001,0.0,0.0,0.0
05/08/2023,04:07:45,0.001,0.0,0.0,0.0
05/08/2023,04:08:45,0.002,0.0,0.0,0.0
05/08/2023,04:09:46,0.002,0.0,0.0,0.0
05/08/2023,04:10:45,0.002,0.0,0.0,0.0
05/08/2023,04:11:45,0.002,0.0,0.0,0.0
05/08/2023,04:12:45,0.001,0.0,0.0,0.0
05/08/2023,04:13:45,0.002,0.0,0.0,0.0
05/08/2023,04:14:45,0.000,0.0,0.0,0.0
05/08/2023,04:15:45,0.001,0.0,0.0,0.0
05/08/2023,04:16:45,0.002,0.0,0.0,0.0
05/08/2023,04:17:46,0.001,0.0,0.0,0.0
05/08/2023,04:18:45,0.000,0.0,0.0,0.0
05/08/2023,04:19:45,0.001,0.0,0.0,0.0
05/08/2023,04:20:46,0.002,0.0,0.0,0.0
05/08/2023,04:21:46,0.001,0.0,0.0,0.0
05/08/2023,04:22:45,0.001,0.0,0.0,0.0
05/08/2023,04:23:45,0.001,0.0,0.0,0.0
05/08/2023,04:24:46,0.002,0.0,0.0,0.0
05/08/2023,04:25:45,0.003,0.0,0.0,0.0
05/08/2023,04:26:45,0.001,0.0,0.0,0.0
05/08/2023,04:27:45,0.002,0.0,0.0,0.0
05/08/2023,04:28:45,0.002,0.0,0.0,0.0
05/08/2023,04:29:46,0.002,0.0,0.0,0.0
05/08/2023,04:30:45,0.002,0.0,0.0,0.0
05/08/2023,04:31:45,0.002,0.0,0.0,0.0
05/08/2023,04:32:45,0.002,0.0,0.0,0.0
05/08/2023,04:33:45,0.001,0.0,0.0,0.0
05/08/2023,04:34:45,0.002,0.0,0.0,0.0
05/08/2023,04:35:45,0.002,0.0,0.0,0.0
05/08/2023,04:36:45,0.002,0.0,0.0,0.0
05/08/2023,04:37:45,0.002,0.0,0.0,0.0
05/08/2023,04:38:45,0.002,0.0,0.0,0.0
05/08/2023,04:39:45,0.003,0.0,0.0,0.0
05/08/2023,04:40:45,0.002,0.0,0.0,0.0
05/08/2023,04:41:45,0.002,0.0,0.0,0.0
05/08/2023,04:42:45,0.003,0.0,0.0,0.0
05/08/2023,04:43:45,0.003,0.0,0.0,0.0
05/08/2023,04:44:46,0.003,0.0,0.0,0.0
05/08/2023,04:45:45,0.003,0.0,0.0,0.0
05/08/2023,04:46:45,0.004,0.0,0.0,0.0
05/08/2023,04:47:45,0.003,0.0,0.0,0.0
05/08/2023,04:48:45,0.003,0.0,0.0,0.0
05/08/2023,04:49:45,0.004,0.0,0.0,0.0
05/08/2023,04:50:45,0.004,0.0,0.0,0.0
05/08/2023,04:51:45,0.004,0.0,0.0,0.0
05/08/2023,04:52:46,0.004,0.0,0.0,0.0
05/08/2023,04:53:45,0.004,0.0,0.0,0.0
05/08/2023,04:54:46,0.004,0.0,0.0,0.0
05/08/2023,04:55:46,0.004,0.0,0.0,0.0
05/08/2023,04:56:45,0.004,0.0,0.0,0.0
05/08/2023,04:57:46,0.005,0.0,0.0,0.0
05/08/2023,04:58:45,0.004,0.0,0.0,0.0
05/08/2023,04:59:46,0.004,0.0,0.0,0.0
05/08/2023,05:00:45,0.005,0.0,0.0,0.0
05/08/2023,05:01:45,0.005,0.0,0.0,0.0
05/08/2023,05:02:45,0.005,0.0,0.0,0.0
05/08/2023,05:03:45,0.006,0.0,0.0,0.0
05/08/2023,05:04:45,0.007,0.0,0.0,0.0
05/08/2023,05:05:45,0.006,0.0,0.0,0.0
05/08/2023,05:06:45,0.006,0.0,0.0,0.0
05/08/2023,05:07:46,0.006,0.0,0.0,0.0
05/08/2023,05:08:45,0.004,0.0,0.0,0.0
05/08/2023,05:09:45,0.004,0.0,0.0,0.0
05/08/2023,05:10:45,0.005,0.0,0.0,0.0
05/08/2023,05:11:45,0.005,0.0,0.0,0.0
05/08/2023,05:12:45,0.005,0.0,0.0,0.0
05/08/2023,05:13:45,0.004,0.0,0.0,0.0
05/08/2023,05:14:45,0.004,0.0,0.0,0.0
05/08/2023,05:15:45,0.004,0.0,0.0,0.0
05/08/2023,05:16:45,0.004,0.0,0.0,0.0
05/08/2023,05:17:45,0.004,0.0,0.0,0.0
05/08/2023,05:18:45,0.004,0.0,0.0,0.0
05/08/2023,05:19:45,0.005,0.0,0.0,0.0
05/08/2023,05:20:45,0.006,0.0,0.0,0.0
05/08/2023,05:21:45,0.007,0.0,0.0,0.0
05/08/2023,05:22:45,0.008,0.0,0.0,0.0
05/08/2023,05:23:45,0.008,0.0,0.001,0.001
05/08/2023,05:24:44,0.008,0.0,0.001,0.0
05/08/2023,05:25:43,0.008,0.0,0.001,0.0
05/08/2023,05:26:45,0.009,0.0,0.001,0.0
05/08/2023,05:27:45,0.009,0.0,0.001,0.0
05/08/2023,05:28:45,0.010,0.0,0.001,0.0
05/08/2023,05:29:45,0.010,0.0,0.001,0.0
05/08/2023,05:30:45,0.011,0.0,0.002,0.001
05/08/2023,05:31:46,0.011,0.0,0.002,0.0
05/08/2023,05:32:45,0.013,0.0,0.002,0.0
05/08/2023,05:33:46,0.013,0.0,0.002,0.0
05/08/2023,05:34:45,0.014,0.0,0.003,0.001
05/08/2023,05:35:45,0.014,0.0,0.003,0.0
05/08/2023,05:36:45,0.015,0.0,0.003,0.0
05/08/2023,05:37:45,0.014,0.0,0.003,0.0
05/08/2023,05:38:45,0.015,0.0,0.003,0.0
05/08/2023,05:39:45,0.015,0.0,0.004,0.001
05/08/2023,05:40:49,0.015,0.0,0.004,0.0
05/08/2023,05:41:46,0.015,0.0,0.004,0.0
05/08/2023,05:42:45,0.015,0.0,0.004,0.0
05/08/2023,05:43:46,0.015,0.0,0.005,0.001
05/08/2023,05:44:46,0.013,0.0,0.005,0.0
05/08/2023,05:45:45,0.014,0.0,0.005,0.0
05/08/2023,05:46:45,0.015,0.0,0.005,0.0
05/08/2023,05:47:45,0.016,0.0,0.006,0.001
05/08/2023,05:48:46,0.020,0.0,0.006,0.0
05/08/2023,05:49:45,0.021,0.0,0.006,0.0
05/08/2023,05:50:46,0.023,0.0,0.007,0.001
05/08/2023,05:51:45,0.025,0.0,0.007,0.0
05/08/2023,05:52:45,0.026,0.0,0.007,0.0
05/08/2023,05:53:45,0.026,0.0,0.008,0.001
05/08/2023,05:54:45,0.025,0.0,0.008,0.0
05/08/2023,05:55:45,0.025,0.0,0.009,0.001
05/08/2023,05:56:45,0.024,0.0,0.009,0.0
05/08/2023,05:57:45,0.023,0.0,0.01,0.001
05/08/2023,05:58:46,0.023,0.0,0.01,0.0
05/08/2023,05:59:46,0.024,0.0,0.01,0.0
05/08/2023,06:00:45,0.025,0.0,0.011,0.001
05/08/2023,06:01:45,0.025,0.0,0.011,0.0
05/08/2023,06:02:45,0.026,0.0,0.012,0.001
05/08/2023,06:03:45,0.028,0.0,0.012,0.0
05/08/2023,06:04:45,0.029,0.0,0.013,0.001
05/08/2023,06:05:45,0.030,0.0,0.013,0.0
05/08/2023,06:06:45,0.031,0.0,0.014,0.001
05/08/2023,06:07:45,0.034,0.0,0.014,0.0
05/08/2023,06:08:45,0.035,0.0,0.015,0.001
05/08/2023,06:09:45,0.035,0.0,0.015,0.0
05/08/2023,06:10:45,0.035,0.0,0.016,0.001
05/08/2023,06:11:45,0.032,0.0,0.016,0.0
05/08/2023,06:12:45,0.031,0.0,0.017,0.001
05/08/2023,06:13:45,0.031,0.0,0.017,0.0
05/08/2023,06:14:45,0.032,0.0,0.018,0.001
05/08/2023,06:15:46,0.033,0.0,0.018,0.0
05/08/2023,06:16:45,0.035,0.0,0.019,0.001
05/08/2023,06:17:45,0.038,0.0,0.02,0.001
05/08/2023,06:18:45,0.041,0.0,0.02,0.0
05/08/2023,06:19:45,0.046,0.0,0.021,0.001
05/08/2023,06:20:46,0.049,0.0,0.022,0.001
05/08/2023,06:21:45,0.051,0.0,0.023,0.001
05/08/2023,06:22:45,0.052,0.0,0.024,0.001
05/08/2023,06:23:46,0.049,0.0,0.024,0.0
05/08/2023,06:24:45,0.048,0.0,0.025,0.001
05/08/2023,06:25:45,0.045,0.0,0.026,0.001
05/08/2023,06:26:46,0.045,0.0,0.027,0.001
05/08/2023,06:27:46,0.044,0.0,0.027,0.0
05/08/2023,06:28:46,0.042,0.0,0.028,0.001
05/08/2023,06:29:47,0.042,0.0,0.029,0.001
05/08/2023,06:30:46,0.040,0.0,0.03,0.001
05/08/2023,06:31:46,0.038,0.0,0.03,0.0
05/08/2023,06:32:45,0.035,0.0,0.031,0.001
05/08/2023,06:33:45,0.032,0.0,0.031,0.0
05/08/2023,06:34:46,0.030,0.0,0.032,0.001
05/08/2023,06:35:46,0.032,0.0,0.032,0.0
05/08/2023,06:36:45,0.035,0.0,0.033,0.001
05/08/2023,06:37:46,0.039,0.0,0.034,0.001
05/08/2023,06:38:46,0.040,0.0,0.034,0.0
05/08/2023,06:39:45,0.037,0.0,0.035,0.001
05/08/2023,06:40:45,0.037,0.0,0.035,0.0
05/08/2023,06:41:46,0.036,0.0,0.036,0.001
05/08/2023,06:42:45,0.035,0.0,0.037,0.001
05/08/2023,06:43:45,0.036,0.0,0.037,0.0
05/08/2023,06:44:45,0.034,0.0,0.038,0.001
05/08/2023,06:45:45,0.032,0.0,0.038,0.0
05/08/2023,06:46:46,0.034,0.0,0.039,0.001
05/08/2023,06:47:45,0.033,0.0,0.04,0.001
05/08/2023,06:48:45,0.033,0.0,0.04,0.0
05/08/2023,06:49:46,0.028,0.0,0.041,0.001
05/08/2023,06:50:45,0.030,0.0,0.041,0.0
05/08/2023,06:51:45,0.037,0.0,0.042,0.001
05/08/2023,06:52:45,0.043,0.0,0.042,0.0
05/08/2023,06:53:45,0.047,0.0,0.043,0.001
05/08/2023,06:54:46,0.051,0.0,0.044,0.001
05/08/2023,06:55:46,0.053,0.0,0.045,0.001
05/08/2023,06:56:46,0.056,0.0,0.046,0.001
05/08/2023,06:57:46,0.060,0.0,0.047,0.001
05/08/2023,06:58:46,0.064,0.0,0.048,0.001
05/08/2023,06:59:45,0.072,0.0,0.049,0.001
05/08/2023,07:00:45,0.078,0.0,0.05,0.001
05/08/2023,07:01:43,0.080,0.0,0.051,0.001
05/08/2023,07:02:43,0.077,0.0,0.053,0.002
05/08/2023,07:03:45,0.072,0.0,0.054,0.001
05/08/2023,07:04:46,0.068,0.0,0.055,0.001
05/08/2023,07:05:45,0.064,0.0,0.056,0.001
05/08/2023,07:06:45,0.063,0.0,0.057,0.001
05/08/2023,07:07:46,0.061,0.0,0.058,0.001
05/08/2023,07:08:45,0.057,0.0,0.059,0.001
05/08/2023,07:09:45,0.056,0.0,0.06,0.001
05/08/2023,07:10:46,0.058,0.0,0.061,0.001
05/08/2023,07:11:45,0.060,0.0,0.062,0.001
05/08/2023,07:12:45,0.067,0.0,0.063,0.001
05/08/2023,07:13:46,0.077,0.0,0.064,0.001
05/08/2023,07:14:45,0.090,0.0,0.066,0.002
05/08/2023,07:15:45,0.093,0.0,0.067,0.001
05/08/2023,07:16:46,0.097,0.0,0.069,0.002
05/08/2023,07:17:46,0.104,0.0,0.071,0.002
05/08/2023,07:18:45,0.111,0.0,0.072,0.001
05/08/2023,07:19:46,0.115,0.0,0.074,0.002
05/08/2023,07:20:46,0.113,0.0,0.076,0.002
05/08/2023,07:21:46,0.099,0.0,0.078,0.002
05/08/2023,07:22:45,0.114,0.0,0.08,0.002
05/08/2023,07:23:46,0.091,0.0,0.081,0.001
05/08/2023,07:24:46,0.093,0.0,0.083,0.002
05/08/2023,07:25:46,0.092,0.0,0.084,0.001
05/08/2023,07:26:45,0.082,0.0,0.086,0.002
05/08/2023,07:27:45,0.074,0.0,0.087,0.001
05/08/2023,07:28:46,0.065,0.0,0.088,0.001
05/08/2023,07:29:45,0.060,0.0,0.089,0.001
05/08/2023,07:30:45,0.057,0.0,0.09,0.001
05/08/2023,07:31:45,0.058,0.0,0.091,0.001
05/08/2023,07:32:46,0.059,0.0,0.092,0.001
05/08/2023,07:33:46,0.059,0.0,0.093,0.001
05/08/2023,07:34:45,0.064,0.0,0.094,0.001
05/08/2023,07:35:47,0.066,0.0,0.095,0.001
05/08/2023,07:36:46,0.071,0.0,0.096,0.001
05/08/2023,07:37:45,0.080,0.0,0.098,0.002
05/08/2023,07:38:45,0.081,0.0,0.099,0.001
05/08/2023,07:39:45,0.081,0.0,0.1,0.001
05/08/2023,07:40:46,0.101,0.0,0.102,0.002
05/08/2023,07:41:45,0.108,0.0,0.104,0.002
05/08/2023,07:42:45,0.116,0.0,0.106,0.002
05/08/2023,07:43:46,0.137,0.0,0.108,0.002
05/08/2023,07:44:47,0.139,0.0,0.11,0.002
05/08/2023,07:45:46,0.123,0.0,0.112,0.002
05/08/2023,07:46:46,0.122,0.0,0.114,0.002
05/08/2023,07:47:45,0.121,0.0,0.116,0.002
05/08/2023,07:48:45,0.126,0.0,0.118,0.002
05/08/2023,07:49:46,0.126,0.0,0.12,0.002
05/08/2023,07:50:45,0.108,0.0,0.122,0.002
05/08/2023,07:51:45,0.095,0.0,0.124,0.002
05/08/2023,07:52:47,0.100,0.0,0.126,0.002
05/08/2023,07:53:46,0.125,0.0,0.127,0.001
05/08/2023,07:54:46,0.116,0.0,0.13,0.003
05/08/2023,07:55:46,0.110,0.0,0.131,0.001
05/08/2023,07:56:46,0.094,0.0,0.133,0.002
05/08/2023,07:57:45,0.087,0.0,0.135,0.002
05/08/2023,07:58:43,0.080,0.0,0.136,0.001
05/08/2023,07:59:43,0.063,0.0,0.137,0.001
05/08/2023,08:00:46,0.069,0.0,0.138,0.001
05/08/2023,08:01:45,0.077,0.0,0.14,0.002
05/08/2023,08:02:45,0.074,0.0,0.141,0.001
05/08/2023,08:03:45,0.076,0.0,0.142,0.001
05/08/2023,08:04:46,0.071,0.0,0.143,0.001
05/08/2023,08:05:45,0.063,0.0,0.144,0.001
05/08/2023,08:06:45,0.062,0.0,0.145,0.001
05/08/2023,08:07:45,0.066,0.0,0.146,0.001
05/08/2023,08:08:46,0.068,0.0,0.147,0.001
05/08/2023,08:09:45,0.067,0.0,0.149,0.002
05/08/2023,08:10:46,0.076,0.0,0.15,0.001
05/08/2023,08:11:46,0.074,0.0,0.151,0.001
05/08/2023,08:12:45,0.079,0.0,0.152,0.001
05/08/2023,08:13:46,0.078,0.0,0.154,0.002
05/08/2023,08:14:45,0.090,0.0,0.155,0.001
05/08/2023,08:15:45,0.091,0.0,0.156,0.001
05/08/2023,08:16:46,0.092,0.0,0.158,0.002
05/08/2023,08:17:45,0.118,0.0,0.16,0.002
05/08/2023,08:18:45,0.116,0.0,0.162,0.002
05/08/2023,08:19:45,0.111,0.0,0.163,0.001
05/08/2023,08:20:46,0.131,0.0,0.166,0.003
05/08/2023,08:21:45,0.136,0.0,0.168,0.002
05/08/2023,08:22:45,0.153,0.0,0.17,0.002
05/08/2023,08:23:46,0.159,0.0,0.173,0.003
05/08/2023,08:24:46,0.128,0.0,0.175,0.002
05/08/2023,08:25:46,0.132,0.0,0.177,0.002
05/08/2023,08:26:45,0.120,0.0,0.179,0.002
05/08/2023,08:27:45,0.131,0.0,0.182,0.003
05/08/2023,08:28:46,0.121,0.0,0.184,0.002
05/08/2023,08:29:45,0.115,0.0,0.186,0.002
05/08/2023,08:30:46,0.127,0.0,0.188,0.002
05/08/2023,08:31:45,0.134,0.0,0.19,0.002
05/08/2023,08:32:45,0.129,0.0,0.192,0.002
05/08/2023,08:33:46,0.128,0.0,0.194,0.002
05/08/2023,08:34:45,0.154,0.0,0.196,0.002
05/08/2023,08:35:46,0.148,0.0,0.199,0.003
05/08/2023,08:36:45,0.150,0.0,0.201,0.002
05/08/2023,08:37:45,0.132,0.0,0.204,0.003
05/08/2023,08:38:46,0.142,0.0,0.206,0.002
05/08/2023,08:39:47,0.147,0.0,0.209,0.003
05/08/2023,08:40:45,0.140,0.0,0.211,0.002
05/08/2023,08:41:45,0.148,0.0,0.213,0.002
05/08/2023,08:42:46,0.138,0.0,0.216,0.003
05/08/2023,08:43:46,0.139,0.0,0.218,0.002
05/08/2023,08:44:46,0.151,0.0,0.221,0.003
05/08/2023,08:45:45,0.162,0.0,0.223,0.002
05/08/2023,08:46:46,0.169,0.0,0.226,0.003
05/08/2023,08:47:46,0.181,0.0,0.229,0.003
05/08/2023,08:48:46,0.174,0.0,0.232,0.003
05/08/2023,08:49:46,0.172,0.0,0.235,0.003
05/08/2023,08:50:44,0.200,0.0,0.238,0.003
05/08/2023,08:51:44,0.190,0.0,0.241,0.003
05/08/2023,08:52:46,0.175,0.0,0.244,0.003
05/08/2023,08:53:46,0.193,0.0,0.247,0.003
05/08/2023,08:54:45,0.182,0.0,0.25,0.003
05/08/2023,08:55:46,0.203,0.0,0.254,0.004
05/08/2023,08:56:46,0.232,1.0,0.257,0.003
05/08/2023,08:57:46,0.237,1.0,0.261,0.004
05/08/2023,08:58:46,0.251,1.0,0.265,0.004
05/08/2023,08:59:46,0.218,1.0,0.269,0.004
05/08/2023,09:00:46,0.225,1.0,0.273,0.004
05/08/2023,09:01:46,0.231,1.0,0.277,0.004
05/08/2023,09:02:46,0.233,1.0,0.28,0.003
05/08/2023,09:03:45,0.248,1.0,0.284,0.004
05/08/2023,09:04:46,0.244,1.0,0.288,0.004
05/08/2023,09:05:46,0.281,1.0,0.293,0.005
05/08/2023,09:06:46,0.223,1.0,0.297,0.004
05/08/2023,09:07:46,0.224,1.0,0.3,0.003
05/08/2023,09:08:46,0.184,0.0,0.304,0.004
05/08/2023,09:09:46,0.189,0.0,0.307,0.003
05/08/2023,09:10:45,0.251,1.0,0.31,0.003
05/08/2023,09:11:45,0.237,1.0,0.314,0.004
05/08/2023,09:12:45,0.278,1.0,0.319,0.005
05/08/2023,09:13:46,0.292,1.0,0.324,0.005
05/08/2023,09:14:46,0.254,1.0,0.328,0.004
05/08/2023,09:15:45,0.268,1.0,0.332,0.004
05/08/2023,09:16:46,0.275,1.0,0.337,0.005
05/08/2023,09:17:46,0.285,1.0,0.342,0.005
05/08/2023,09:18:46,0.259,1.0,0.346,0.004
05/08/2023,09:19:45,0.270,1.0,0.351,0.005
05/08/2023,09:20:46,0.250,1.0,0.355,0.004
05/08/2023,09:21:45,0.287,1.0,0.36,0.005
05/08/2023,09:22:46,0.239,1.0,0.364,0.004
05/08/2023,09:23:45,0.247,1.0,0.368,0.004
05/08/2023,09:24:46,0.248,1.0,0.372,0.004
05/08/2023,09:25:45,0.289,1.0,0.377,0.005
05/08/2023,09:26:45,0.280,1.0,0.382,0.005
05/08/2023,09:27:44,0.250,1.0,0.386,0.004
05/08/2023,09:28:44,0.236,1.0,0.39,0.004
05/08/2023,09:29:45,0.231,1.0,0.394,0.004
05/08/2023,09:30:46,0.195,0.0,0.397,0.003
05/08/2023,09:31:45,0.230,1.0,0.401,0.004
05/08/2023,09:32:45,0.227,1.0,0.405,0.004
05/08/2023,09:33:46,0.288,1.0,0.409,0.004
05/08/2023,09:34:45,0.304,1.0,0.414,0.005
05/08/2023,09:35:46,0.300,1.0,0.419,0.005
05/08/2023,09:36:45,0.377,1.0,0.425,0.006
05/08/2023,09:37:45,0.282,1.0,0.43,0.005
05/08/2023,09:38:46,0.322,1.0,0.435,0.005
05/08/2023,09:39:45,0.323,1.0,0.44,0.005
05/08/2023,09:40:46,0.269,1.0,0.445,0.005
05/08/2023,09:41:46,0.281,1.0,0.45,0.005
05/08/2023,09:42:46,0.278,1.0,0.455,0.005
05/08/2023,09:43:46,0.272,1.0,0.459,0.004
05/08/2023,09:44:46,0.239,1.0,0.463,0.004
05/08/2023,09:45:45,0.218,1.0,0.467,0.004
05/08/2023,09:46:46,0.218,1.0,0.471,0.004
05/08/2023,09:47:46,0.218,1.0,0.474,0.003
05/08/2023,09:48:46,0.272,1.0,0.478,0.004
05/08/2023,09:49:45,0.300,1.0,0.483,0.005
05/08/2023,09:50:46,0.450,1.0,0.489,0.006
05/08/2023,09:51:46,0.396,1.0,0.497,0.008
05/08/2023,09:52:46,0.395,1.0,0.503,0.006
05/08/2023,09:53:44,0.391,1.0,0.51,0.007
05/08/2023,09:54:44,0.386,1.0,0.516,0.006
05/08/2023,09:55:46,0.296,1.0,0.522,0.006
05/08/2023,09:56:46,0.278,1.0,0.527,0.005
05/08/2023,09:57:46,0.258,1.0,0.531,0.004
05/08/2023,09:58:46,0.260,1.0,0.536,0.005
05/08/2023,09:59:46,0.221,1.0,0.54,0.004
05/08/2023,10:00:46,0.257,1.0,0.543,0.003
05/08/2023,10:01:46,0.254,1.0,0.548,0.005